Voltar ao catálogo

STARLINK-34363

AtivoComunicaçõesVLEO
NORAD 64497·PAYLOAD·🇺🇸 United States

Lançado Jun 23, 2025 de Cape Canaveral Space Force Station

Loading…

Próximas Passagens (próximas 24 horas)

TLE

AtualizadoSource: CelesTrak SupGP

Época: Sep 15, 2026, 02:32 UTC

1 64497C 25133AB  26258.10604167  .00046856  00000+0  13844-2 0  2580
2 64497  53.1580 311.1138 0001209  93.4936 187.4799 15.34366917    19

Acompanhe STARLINK-34363 em tempo real com AllMySat

Download on the App Store